OBJECT BE (43810 NORAD) Tracking and Keplerian Element Data

This shows tracking and keplerian element data for the satellite.

Feedback or suggestion? Click here.




ElementValue
Catalog43810
NameOBJECT BE
Epoch Orbit523
Epoch Day10.82752735
Epoch Year2019
RAAN84.5784
Inclination97.7545
Eccentricity0.0015708
Argument of Perigee131.464
Mean Anonmoly228.7933
Mean Motion14.9531419
Decay Rate2.33E-06
L11 43810U 18099BE 19010.82752735 .00000233 00000-0 26350-4 0 9991
L22 43810 97.7545 84.5784 0015708 131.4640 228.7933 14.95314190 5232

Live tracking and technical data element details for OBJECT BE (NORAD 43810). OBJECT BE can be tracked NOW for your location showing map with azimuth and elevation plus other details from your city location.

Track the satellite on the map from your city or location and see movement details for azimuth, elevation, latitude, longitude, range, height, and movement on the map or in text.







IsCatalogInMostPopularTable: catalog: 43810, numindb: 21
Update: records affected: 1



GetName: 43810 OBJECT BE

Hit Count: updated at: Thu, 17 Jan 2019 16:18:37 GMT